Printer-friendly version

IAU Minor Planet Center

Minor Planet Center

MPEC 2005-L05 : 2005 LC

The following Minor Planet Electronic Circular may be linked-to from your own Web pages, but must not otherwise be redistributed electronically.


Read MPEC 2005-L04 Read MPEC 2005-L06


M.P.E.C. 2005-L05                                Issued 2005 June 2, 10:25 UT

     The Minor Planet Electronic Circulars contain information on unusual
         minor planets and routine data on comets.  They are published
   on behalf of Commission 20 of the International Astronomical Union by the
          Minor Planet Center, Smithsonian Astrophysical Observatory,
                          Cambridge, MA 02138, U.S.A.

                  Supported in part by the Brinson Foundation
             Prepared using the Tamkin Foundation Computer Network

                              MPC@CFA.HARVARD.EDU
          URL http://cfa-www.harvard.edu/iau/mpc.html  ISSN 1523-6714

                                    2005 LC

Observations:
     K05L00C* C2005 06 01.22938 14 14 15.72 -13 36 20.8          20.3 R EL005G96
     K05L00C  C2005 06 01.23666 14 14 18.09 -13 37 38.7          19.1 R EL005G96
     K05L00C  C2005 06 01.24398 14 14 20.45 -13 38 56.6          19.5 R EL005G96
     K05L00C  C2005 06 01.25131 14 14 22.84 -13 40 14.5          19.1 R EL005G96
     K05L00C  C2005 06 01.31851 14 14 45.37 -13 51 57.4          19.5 R EL005G96
     K05L00C  C2005 06 01.32032 14 14 46.13 -13 52 18.3          19.3 R EL005G96
     K05L00C  C2005 06 01.32215 14 14 46.88 -13 52 37.3          20.3 R EL005G96
     K05L00C  C2005 06 01.32403 14 14 47.50 -13 52 55.3          19.8 R EL005G96
     K05L00C  C2005 06 02.23681 14 21 59.09 -16 32 39.2          20.2 R EL005G96
     K05L00C  C2005 06 02.23941 14 21 59.87 -16 33 03.9          19.9 R EL005G96
     K05L00C  C2005 06 02.24205 14 22 00.74 -16 33 30.1          19.4 R EL005G96
     K05L00C  C2005 06 02.24468 14 22 01.61 -16 33 58.0          19.1 R EL005G96
     K05L00C  C2005 06 02.24752 14 22 02.53 -16 34 25.9          18.9 R EL005G96
     K05L00C  C2005 06 02.25123 14 22 03.73 -16 35 03.6          19.6 R EL005G96
     K05L00C  C2005 06 02.25502 14 22 04.95 -16 35 41.5          18.9 R EL005G96
     K05L00C  C2005 06 02.25873 14 22 06.20 -16 36 18.1          18.9 R EL005G96
     K05L00C  C2005 06 02.28753 14 22 15.65 -16 41 08.2          19.2 R EL005G96
     K05L00C  C2005 06 02.29171 14 22 17.11 -16 41 48.3          19.5 R EL005G96
     K05L00C  C2005 06 02.29604 14 22 18.51 -16 42 30.6          19.4 R EL005G96
     K05L00C  C2005 06 02.30374 14 22 21.15 -16 43 47.8          19.5 R EL005G96
     K05L00C  C2005 06 02.30796 14 22 22.66 -16 44 29.7          19.1 R EL005G96
     K05L00C  C2005 06 02.31217 14 22 24.01 -16 45 08.7          19.9 R EL005G96
     K05L00C  C2005 06 02.31640 14 22 25.53 -16 45 52.4          17.6 R EL005G96

Observer details:
G96 Mt. Lemmon Survey.  Observer A. Grauer.  Measurers E. C. Beshore,
    C. M. Casey, E. J. Christensen, G. J. Garradd, A. Grauer, R. E. Hill,
    S. M. Larson, R. H. McNaught.  1.5-m reflector + CCD.

Orbital elements:
2005 LC
Epoch 2005 May 30.0 TT = JDT 2453520.5                  MPC
M  26.43290              (2000.0)            P               Q
n   0.81918813     Peri.  145.53063     -0.81275612     +0.58077396
a   1.1312197      Node    70.04015     -0.54497237     -0.72986747
e   0.1019372      Incl.    2.81384     -0.20599178     -0.36054832
P   1.20           H   26.5           G   0.15
From 23 observations 2005 June 1-2.

Ephemeris:
2005 LC                  a,e,i = 1.13, 0.10, 3                   q = 1.0159
Date    TT    R. A. (2000) Decl.     Delta      r     Elong.  Phase     V
2005 05 30    13 57.06   -06 35.6    0.0218   1.031   140.7    38.6    19.8
2005 06 04    14 35.42   -21 13.9    0.0242   1.035   149.3    30.1    19.8
2005 06 09    15 11.60   -31 55.9    0.0286   1.041   152.6    26.7    20.1
2005 06 14    15 44.18   -38 51.5    0.0345   1.046   152.8    26.4    20.5
2005 06 19    16 12.52   -43 04.1    0.0413   1.053   151.9    27.1    20.9
2005 06 24    16 36.59   -45 29.8    0.0490   1.059   150.8    27.9    21.3
2005 06 29    16 56.75   -46 45.5    0.0573   1.066   149.7    28.7    21.7
2005 07 04    17 13.76   -47 14.2    0.0662   1.074   148.7    29.5    22.0
2005 07 09    17 28.52   -47 10.9    0.0759   1.082   147.5    30.3    22.4

Timothy B. Spahr             (C) Copyright 2005 MPC           M.P.E.C. 2005-L05

Read MPEC 2005-L04 Read MPEC 2005-L06


Our Web policy. Index to the CBAT/MPC/ICQ pages.


Valid HTML 4.01!